Burbank, CA

2:33 AM PDT on October 22, 2017 (GMT -0700)
Burbank-Glendale-Pasadena

Weather History for KBUR - February, 2013

Change the Weather History Date:

Monday, February 4, 2013

  Actual Average Record
Temperature  
Mean Temperature 60 °F 55 °F  
Max Temperature 73 °F 68 °F 86 °F (2001)
Min Temperature 47 °F 43 °F 31 °F (1979)
Degree Days  
Heating Degree Days 5 10  
Month to date heating degree days 10 40  
Since 1 July heating degree days 789 923  
Cooling Degree Days 0 0  
Month to date cooling degree days 2 0  
Year to date cooling degree days 2 2  
Growing Degree Days 9 (Base 50)    
Moisture  
Dew Point 43 °F    
Average Humidity 59    
Maximum Humidity 83    
Minimum Humidity 35    
Precipitation  
Precipitation 0.00 in 0.15 in 3.01 in (1998)
Month to date precipitation T 0.56  
Year to date precipitation 0.77 4.09  
Since 1 July precipitation 3.57  
Sea Level Pressure  
Sea Level Pressure 30.02 in    
Wind  
Wind Speed 2 mph (SE)    
Max Wind Speed 10 mph    
Max Gust Speed -    
Visibility 8 miles    
Events      
T = Trace of Precipitation, MM = Missing Value Source: NWS Daily Summary

Daily Weather History Graph

Daily Weather History Graph

Search for Another Location

Airport or City:

Trip Planner

Search our weather history database for the weather conditions in past years. The results will help you decide how hot, cold, wet, or windy it might be!

Date:

Astronomy

Feb. 04, 2013 Rise Set
Actual Time 6:48 AM PST 5:27 PM PST
Civil Twilight 6:22 AM PST 5:53 PM PST
Nautical Twilight 5:52 AM PST 6:22 PM PST
Astronomical Twilight 5:22 AM PST 6:52 PM PST
Moon 1:26 AM PST (2/4) 11:58 AM PST (2/4)
Length of Visible Light 11h 31m
Length of Day
10h 38m
Last Quarter, 36% of the Moon is Illuminated
Feb 4
Last Quarter
Feb 9
New
Feb 17
First Quarter
Feb 25
Full
Mar 4
Last Quarter

Hourly Weather History & Observations

Time (PST) Temp. Dew Point Humidity Pressure Visibility Wind Dir Wind Speed Gust Speed Precip Events Conditions
12:53 AM 53.1 °F 37.9 °F 57% 30.01 in 10.0 mi Calm Calm - N/A   Clear
2:53 AM 51.1 °F 37.9 °F 61% 30.02 in 10.0 mi Calm Calm - N/A   Clear
3:53 AM 50.0 °F 37.0 °F 61% 30.01 in 10.0 mi Calm Calm - N/A   Clear
4:53 AM 46.9 °F 37.9 °F 71% 30.01 in 10.0 mi Calm Calm - N/A   Clear
5:53 AM 48.0 °F 36.0 °F 63% 30.02 in 10.0 mi Calm Calm - N/A   Clear
6:53 AM 48.0 °F 35.1 °F 61% 30.03 in 10.0 mi Calm Calm - N/A   Clear
7:53 AM 50.0 °F 37.0 °F 61% 30.04 in 10.0 mi Calm Calm - N/A   Clear
8:53 AM 55.0 °F 39.0 °F 55% 30.06 in 10.0 mi Calm Calm - N/A   Clear
9:53 AM 61.0 °F 39.0 °F 44% 30.07 in 10.0 mi SE 3.5 mph - N/A   Clear
10:53 AM 66.0 °F 42.1 °F 42% 30.06 in 10.0 mi Variable 3.5 mph - N/A   Clear
11:53 AM 69.1 °F 41.0 °F 36% 30.03 in 10.0 mi Calm Calm - N/A   Clear
12:53 PM 72.0 °F 42.1 °F 34% 30.00 in 10.0 mi Calm Calm - N/A   Clear
1:53 PM 72.0 °F 46.0 °F 40% 29.96 in 10.0 mi South 6.9 mph - N/A   Clear
2:53 PM 72.0 °F 48.0 °F 43% 29.95 in 10.0 mi South 8.1 mph - N/A   Clear
3:53 PM 69.1 °F 45.0 °F 42% 29.95 in 10.0 mi South 8.1 mph - N/A   Clear
4:53 PM 64.9 °F 45.0 °F 48% 29.95 in 10.0 mi South 6.9 mph - N/A   Clear
5:53 PM 63.0 °F 46.0 °F 54% 29.96 in 10.0 mi Variable 5.8 mph - N/A   Clear
6:53 PM 60.1 °F 48.0 °F 64% 29.98 in 10.0 mi SSE 4.6 mph - N/A   Clear
7:53 PM 57.9 °F 48.9 °F 72% 30.01 in 7.0 mi SSE 4.6 mph - N/A   Clear
8:53 PM 55.0 °F 48.9 °F 80% 30.03 in 5.0 mi SSE 4.6 mph - N/A   Haze
9:53 PM 54.0 °F 48.9 °F 83% 30.04 in 5.0 mi East 4.6 mph - N/A   Haze
10:53 PM 53.1 °F 48.9 °F 86% 30.04 in 4.0 mi SE 6.9 mph - N/A   Clear
11:11 PM 51.8 °F 48.2 °F 88% 30.06 in 3.0 mi ESE 5.8 mph - N/A   Mostly Cloudy
11:29 PM 51.8 °F 48.2 °F 88% 30.06 in 2.5 mi SSE 6.9 mph - N/A   Mostly Cloudy
11:41 PM 51.8 °F 48.2 °F 88% 30.06 in 1.2 mi ESE 8.1 mph - N/A   Overcast
11:53 PM 52.0 °F 48.9 °F 89% 30.04 in 1.8 mi SE 5.8 mph - N/A   Overcast